Weather Roundup
Issued by NWS Chicago, IL

Home | Current Version | Previous Version | Graphics & Text | Print | Product List | Glossary On
Versions: 1 2 3 4 5 6 7 8 9 10 11 12 13 14 15 16 17 18 19 20 21 22 23 24 25 26 27 28 29 30 31 32 33 34 35 36 37 38 39 40 41 42 43 44 45 46 47 48 49 50
000
NZUS59 KLOT 310406
HRRLOT

CHICAGO AREA WEATHER ROUNDUP
NATIONAL WEATHER SERVICE CHICAGO/ROMEOVILLE IL
1100 PM CDT WED JUL 30 2014

NOTE: "FAIR" INDICATES FEW OR NO CLOUDS BELOW 12,000 FEET WITH NO
SIGNIFICANT WEATHER AND/OR OBSTRUCTIONS TO VISIBILITY.

* THESE STATIONS ARE NOT UNDER NWS QUALITY CONTROL. THEY ALSO MAY NOT
  REPORT WEATHER SUCH AS PRECIPITATION OR FOG.

ILZ005-006-012>014-019>023-310500-
NORTHEAST ILLINOIS

CITY           SKY/WX    TMP DP  RH WIND       PRES   REMARKS
OHARE          CLEAR     64  55  72 SE6       30.04R
MIDWAY         PTCLDY    67  60  78 E5        30.04S
AURORA         CLEAR     60  55  83 N5        30.04S
LANSING*       CLEAR     61  57  89 CALM      30.04S
JOLIET*        CLEAR     64  58  80 CALM      30.05R
WAUKEGAN       CLEAR     57  55  93 CALM      30.03S
DUPAGE AIRPORT CLEAR     64  58  80 CALM      30.04R
WHEELING       CLEAR     62  57  83 CALM      30.05S
KANKAKEE*      PTCLDY    64  61  88 CALM      30.05S
MORRIS*        CLEAR     63  60  91 W5        30.04R
LEWIS AIRPORT* CLEAR     64  57  79 SE3       30.04S
NORTHERLY IS     N/A     64  61  90 E2          N/A
$$

WIZ051-052-058>065-066-070>072-310500-
SOUTHEAST WISCONSIN

CITY           SKY/WX    TMP DP  RH WIND       PRES   REMARKS
MILWAUKEE      MOCLDY    62  54  74 S3        30.02S
KENOSHA*       CLEAR     60  56  86 S5        30.04S
RACINE*        CLEAR     59  54  83 SW7       30.04S
BURLINGTON     CLEAR     54  53  95 CALM      30.03S
WAUKESHA       CLEAR     57  52  82 CALM      30.03S
WEST BEND      CLEAR     63  52  67 W5        30.01S
$$

INZ001>003-010>013-019-020-310500-
NORTHWEST INDIANA

CITY           SKY/WX    TMP DP  RH WIND       PRES   REMARKS
GARY*          CLEAR     60  58  94 CALM      30.05S FOG
MICHIGAN CITY* NOT AVBL
RENSSELAER*    NOT AVBL
VALPARAISO     PTCLDY    59  56  89 CALM      30.05S
$$

LMZ740>746-310500-
SOUTHERN LAKE MICHIGAN

STATION/POSITION TIME  SKY/WX   TEMP WIND        PRES    VSBY
                                AIR  DIR/SP/G
                 (UTC)          (F)  (DEG/KT/KT) (MB)    (MI)
HARRISON CRIB    0400            64  150/  5/  7   N/A
BURNHAM HARBOR   0400            64  110/  2/  4   N/A
CALUMET HARBOR   0300            65   80/  3/  4 1016.0S
BURNS HARBOR     NOT AVBL
MICHIGAN CITY    0400            63  140/  1/  2   N/A
$$

ABBREVIATIONS USED IN REMARKS
   TC - TEMPERATURE IN CELSIUS
  WCI - WIND CHILL INDEX
   HX - HEAT INDEX
  VSB - VISIBILITY
$$



USA.gov is the U.S. government's official web portal to all federal, state and local government web resources and services.